CAPE
0 0 0 0 0 0 0 0 0 0 0 0 0 0 0 0 0 0 0 0 0 0 0 0 0 0 0 0 0 0 0 0 0 0 0 0 0 0 0 0 0 0 0 0 0
0 0 0 0 0 0 0 0 0 0 0 0 0 0 0 0 0 0 0 0 0 0 0 0 0 0 0 0 0 0 0 0 0 0 0 0 0 0 0 0 0 0 0 0 0
0 0 0 0 0 0 0 0 0 0 0 0 0 0 0 0 0 0 0 0 0 0 0 0 0 0 0 0 0 0 0 0 0 0 0 0 0 0 0 0 0 0 0 0 0
0 0 0 0 0 0 0 0 0 0 0 0 0 0 0 0 0 0 0 0 0 0 0 0 0 0 0 0 0 0 0 0 0 0 0 0 0 0 0 0 0 0 0 0 0
0 0 0 0 0 0 0 0 0 0 0 0 0 0 0 0 0 0 0 0 0 0 0 0 0 0 0 0 0 0 0 0 0 0 0 0 0 0 0 0 0 0 0 0 0
0 0 0 0 0 0 0 0 0 0 0 0 0 0 0 0 0 0 0 0 0 0 0 0 0 0 0 0 0 0 0 0 0 0 0 0 0 0 0 0 0 0 0 0 0
0 0 0 0 0 0 0 0 0 0 0 0 0 0 0 0 0 0 0 0 0 0 0 0 0 0 0 0 0 0 0 0 0 0 0 0 0 0 0 0 0 0 0 0 0
0 0 0 0 0 0 0 0 0 0 0 0 0 0 0 0 0 0 0 0 0 0 0 0 0 0 0 0 0 0 0 0 0 0 0 0 0 0 0 0 0 0 0 0 0
0 0 0 0 0 0 0 0 0 0 0 0 0 0 0 0 0 0 0 0 0 0 0 0 0 0 0 0 0 0 0 0 0 0 0 0 0 0 0 0 0 0 0 0 0
0 0 0 0 0 0 0 0 0 0 0 0 0 0 0 0 0 0 0 0 0 0 0 0 0 0 0 0 0 0 0 0 0 0 0 0 0 0 0 0 0 0 0 0 0
0 0 0 0 0 0 0 0 0 0 0 0 0 0 0 0 0 0 0 0 0 0 0 0 0 0 0 0 0 0 0 0 0 0 0 0 0 0 0 0 0 0 0 0 0
0 0 0 0 0 0 0 0 0 0 0 0 0 0 0 0 0 0 0 0 0 0 0 0 0 0 0 0 0 0 0 0 0 0 0 0 0 0 0 0 0 0 0 0 0
0 0 0 0 0 0 0 0 0 0 0 0 0 0 0 0 0 0 0 0 0 0 0 0 0 0 0 0 0 0 0 0 0 0 0 0 0 0 0 0 0 0 0 0 0
0 0 0 0 0 0 0 0 0 0 0 0 0 0 0 0 0 0 0 0 0 0 0 0 0 0 0 0 0 0 0 0 0 0 0 0 0 0 0 0 0 0 0 0 9
0 0 0 0 0 0 0 0 0 0 105 0 0 0 0 0 0 0 0 0 0 0 0 0 0 0 0 0 0 0 0 0 0 0 0 0 0 4 0 0 0 8 17 2 0
0 0 0 0 0 0 0 0 0 0 1 0 0 0 0 0 0 0 0 0 0 0 0 0 0 0 0 0 0 0 0 0 0 0 0 0 0 0 0 1 0 1 0 0 4
0 0 0 0 0 0 0 0 0 1 1 0 0 0 0 0 0 0 0 0 0 0 0 0 0 0 0 0 0 0 0 0 0 0 0 0 0 3 0 0 0 0 0 0 21
0 0 0 0 0 0 0 0 0 7 0 0 0 0 0 0 0 0 0 0 0 0 0 0 0 0 0 0 0 0 0 0 0 0 0 0 0 0 0 0 0 0 0 0 0
0 0 0 0 0 0 0 0 0 0 0 0 0 0 0 0 0 0 0 0 0 0 0 0 0 0 0 0 0 0 0 0 0 0 0 0 0 4 0 0 0 2 0 1 7
0 0 0 0 0 0 0 0 0 0 0 0 0 0 0 1 0 0 0 0 0 0 0 0 0 0 0 0 0 0 0 0 0 0 0 0 0 0 0 0 0 4 6 9 9
0 0 0 0 0 0 0 10 0 0 0 0 0 0 0 0 0 0 0 0 0 0 0 0 0 0 0 0 0 0 0 0 0 0 0 0 0 0 1 23 25 33 1 11 43
0 0 0 0 0 0 0 0 0 0 0 0 0 0 0 0 0 0 0 1 0 0 0 0 0 0 0 0 0 0 0 0 0 0 7 4 0 0 0 20 30 21 9 0 2
0 0 0 0 0 0 0 0 0 0 0 0 0 0 0 0 0 0 0 0 0 0 0 0 0 0 0 0 0 0 0 0 0 0 0 3 0 5 14 36 79 26 0 0 0
0 0 0 0 0 0 0 0 0 0 0 0 0 0 0 0 0 0 0 0 0 0 0 0 0 0 0 0 0 0 0 0 0 0 0 1 0 17 57 47 33 0 0 0 0
0 0 0 0 0 0 0 0 0 0 0 0 0 0 0 0 0 0 0 0 0 0 0 0 0 0 0 0 0 0 0 0 0 0 1 0 6 64 16 9 9 0 2 0 0
0 0 0 0 0 0 0 0 0 0 0 0 0 0 0 0 0 0 0 0 0 0 0 0 0 0 0 0 0 0 0 0 0 0 3 11 12 27 23 4 4 0 0 1 0
0 0 0 0 0 0 0 0 0 0 0 0 0 0 0 0 0 0 0 0 0 0 0 0 0 0 0 0 0 0 0 0 0 0 1 7 21 32 2 0 0 0 3 1 1
CIN
-0 -0 -0 -0 -0 -0 -0 -0 -0 -0 -0 -0 -0 -0 -0 -0 -0 -0 -0 -0 -0 -0 -0 -0 -0 -0 -0 -0 -0 -0 -0 -0 -0 -0 -0 -0 -0 -0 -0 -0 -0 -0 -0 -0 -0
-0 -0 -0 -0 -0 -0 -0 -0 -0 -0 -0 -0 -0 -0 -0 -0 -0 -0 -0 -0 -0 -0 -0 -0 -0 -0 -0 -0 -0 -0 -0 -0 -0 -0 -0 -0 -0 -0 -0 -0 -0 -0 -0 -0 -0
-0 -0 -0 -0 -0 -0 -0 -0 -0 -0 -0 -0 -0 -0 -0 -0 -0 -0 -0 -0 -0 -0 -0 -0 -0 -0 -0 -0 -0 -0 -0 -0 -0 -0 -0 -0 -0 -0 -0 -0 -0 -0 -0 -0 -0
-0 -0 -0 -0 -0 -0 -0 -0 -0 -0 -0 -0 -0 -0 -0 -0 -0 -0 -0 -0 -0 -0 -0 -0 -0 -0 -0 -0 -0 -0 -0 -0 -0 -0 -0 -0 -0 -0 -0 -0 -0 -0 -0 -0 -0
-0 -0 -0 -0 -0 -0 -0 -0 -0 -0 -0 -0 -0 -0 -0 -0 -0 -0 -0 -0 -0 -0 -0 -0 -0 -0 -0 -0 -0 -0 -0 -0 -0 -0 -0 -0 -0 -0 -0 -0 -0 -0 -0 -0 -0
-0 -0 -0 -0 -0 -0 -0 -0 -0 -0 -0 -0 -0 -0 -0 -0 -0 -0 -0 -0 -0 -0 -0 -0 -0 -0 -0 -0 -0 -0 -0 -0 -0 -0 -0 -0 -0 -0 -0 -0 -0 -0 -0 -0 -0
-0 -0 -0 -0 -0 -0 -0 -0 -0 -0 -0 -0 -0 -0 -0 -0 -0 -0 -0 -0 -0 -0 -0 -0 -0 -0 -0 -0 -0 -0 -0 -0 -0 -0 -0 -0 -0 -0 -0 -0 -0 -0 -0 -0 -0
-0 -0 -0 -0 -0 -0 -0 -0 -0 -0 -0 -0 -0 -0 -0 -0 -0 -0 -0 -0 -0 -0 -0 -0 -0 -0 -0 -0 -0 -0 -0 -0 -0 -0 -0 -0 -0 -0 -0 -0 -0 -0 -0 -0 -0
-0 -0 -0 -0 -0 -0 -0 -0 -0 -0 -0 -0 -0 -0 -0 -0 -0 -0 -0 -0 -0 -0 -0 -0 -0 -0 -0 -0 -0 -0 -0 -0 -0 -0 -0 -0 -0 -0 -0 -0 -0 -0 -0 -0 -0
-0 -0 -0 -0 -0 -0 -0 -0 -0 -0 -0 -0 -0 -0 -0 -0 -0 -0 -0 -0 -0 -0 -0 -0 -0 -0 -0 -0 -0 -0 -0 -0 -0 -0 -0 -0 -0 -0 -0 -0 -0 -0 -0 -0 -0
-0 -0 -0 -0 -0 -0 -0 -0 -0 -0 -0 -0 -0 -0 -0 -0 -0 -0 -0 -0 -0 -0 -0 -0 -0 -0 -0 -0 -0 -0 -0 -0 -0 -0 -0 -0 -0 -0 -0 -0 -0 -0 -0 -0 -0
-0 -0 -0 -0 -0 -0 -0 -0 -0 -0 -0 -0 -0 -0 -0 -0 -0 -0 -0 -0 -0 -0 -0 -0 -0 -0 -0 -0 -0 -0 -0 -0 -0 -0 -0 -0 -0 -0 -0 -0 -0 -0 -0 -0 -0
-0 -0 -0 -0 -0 -0 -0 -0 -0 -0 -0 -0 -0 -0 -0 -0 -0 -0 -0 -0 -0 -0 -0 -0 -0 -0 -0 -0 -0 -0 -0 -0 -0 -0 -0 -0 -0 -0 -0 -0 -0 -0 -0 -0 -0
-0 -0 -0 -0 -0 -0 -0 -0 -0 -0 -0 -0 -0 -0 -0 -0 -0 -0 -0 -0 -0 -0 -0 -0 -0 -0 -0 -0 -0 -0 -0 -0 -0 -0 -0 -0 -0 -0 -0 -0 -0 -0 -0 -0 -4
-0 -0 -0 -0 -0 -0 -0 -0 -0 -0 -9 -0 -0 -0 -0 -0 -0 -0 -0 -0 -0 -0 -0 -0 -0 -0 -0 -0 -0 -0 -0 -0 -0 -0 -0 -0 -0 -8 -0 -0 -9 -6 -4 -8 -0
-0 -0 -0 -0 -0 -0 -0 -0 -0 -0 -4 -0 -0 -0 -0 -0 -0 -0 -0 -0 -0 -0 -0 -0 -0 -0 -0 -0 -0 -0 -0 -0 -0 -0 -0 -0 -0 -0 -0 -15 -0 -18 -14 -7 -9
-0 -0 -0 -0 -0 -0 -0 -0 -0 -19 -2 -0 -0 -0 -0 -0 -0 -0 -0 -0 -0 -0 -0 -0 -0 -0 -0 -0 -0 -0 -0 -0 -0 -0 -0 -0 -0 -18 -0 -0 -0 -0 -0 -0 -77
-0 -0 -0 -0 -0 -0 -0 -0 -0 -5 -0 -0 -0 -0 -0 -0 -0 -0 -0 -0 -0 -0 -0 -0 -0 -0 -0 -0 -0 -0 -0 -0 -0 -0 -0 -0 -0 -0 -0 -0 -0 -0 -0 -0 -232
-0 -0 -0 -0 -0 -0 -0 -0 -3 -0 -0 -0 -0 -0 -0 -0 -0 -0 -0 -0 -0 -0 -0 -0 -0 -0 -0 -0 -0 -0 -0 -0 -0 -0 -0 -0 -0 -4 -0 -0 -0 -1 -43 -81 -184
-0 -0 -0 -0 -0 -0 -0 -0 -0 -0 -0 -0 -0 -0 -0 -3 -0 -0 -0 -0 -0 -0 -0 -0 -0 -0 -0 -0 -0 -0 -0 -0 -0 -0 -0 -0 -0 -0 -0 -0 -0 -1 -66 -65 -119
-0 -0 -0 -0 -0 -0 -0 -2 -0 -0 -0 -0 -0 -0 -0 -0 -0 -0 -0 -0 -0 -0 -0 -0 -0 -0 -0 -0 -0 -0 -0 -0 -0 -0 -0 -0 -0 -0 -0 -6 -26 -42 -14 -56 -92
-0 -0 -0 -0 -0 -0 -0 -0 -0 -0 -0 -0 -0 -0 -0 -0 -0 -0 -0 -39 -0 -0 -0 -0 -0 -0 -0 -0 -0 -0 -0 -0 -0 -0 -2 -4 -0 -0 -1 -9 -3 -1 -17 -0 -20
-0 -0 -0 -0 -0 -0 -0 -0 -0 -0 -0 -0 -0 -0 -0 -0 -0 -0 -0 -0 -0 -0 -0 -0 -0 -0 -0 -0 -0 -0 -0 -0 -0 -0 -0 -0 -0 -6 -7 -20 -13 -29 -0 -0 -0
-0 -0 -0 -0 -0 -0 -0 -0 -0 -0 -0 -0 -0 -0 -0 -0 -0 -0 -0 -0 -0 -0 -0 -0 -0 -0 -0 -0 -0 -0 -0 -0 -0 -0 -0 -2 -0 -7 -21 -17 -31 -0 -0 -0 -0
-0 -0 -0 -0 -0 -0 -0 -0 -0 -0 -0 -0 -0 -0 -0 -0 -0 -0 -0 -0 -0 -0 -0 -0 -0 -0 -0 -0 -0 -0 -0 -0 -0 -0 -0 -0 -5 -31 -30 -43 -57 -0 -3 -0 -0
-0 -0 -0 -0 -0 -0 -0 -0 -0 -0 -0 -0 -0 -0 -0 -0 -0 -0 -0 -0 -0 -0 -0 -0 -0 -0 -0 -0 -0 -0 -0 -0 -0 -0 -4 -2 -4 -5 -16 -4 -2 -0 -0 -0 -0
-0 -0 -0 -0 -0 -0 -0 -0 -0 -0 -0 -0 -0 -0 -0 -0 -0 -0 -0 -0 -0 -0 -0 -0 -0 -0 -0 -0 -0 -0 -0 -0 -0 -0 -1 -2 -2 -4 -10 -0 -0 -0 -2 -12 -9
Wind_Speed
15 15 15 15 15 15 15 15 15 16 16 17 17 16 16 16 17 14 16 17 17 17 17 19 20 22 23 25 24 26 28 29 31 18 13 15 19 16 19 23 19 20 22 23 25
15 15 15 16 16 16 15 14 15 16 17 16 15 15 15 16 16 10 17 19 19 18 18 18 14 18 16 20 19 23 26 19 18 16 19 22 22 24 25 20 21 17 22 27 28
14 14 14 14 15 14 14 14 15 16 16 15 15 15 14 15 14 14 17 15 16 17 18 19 16 22 20 18 16 21 20 18 18 20 21 27 26 20 24 21 22 25 28 29 29
14 14 14 14 13 13 13 13 14 14 15 15 15 15 15 14 14 15 15 15 14 14 16 10 17 16 19 14 15 12 17 21 18 19 20 21 22 23 22 22 23 24 27 28 28
15 14 14 14 13 13 14 14 14 14 15 16 17 16 16 15 15 16 16 14 12 13 14 16 18 14 16 15 13 14 14 15 15 16 16 20 21 23 24 21 17 22 25 27 28
17 16 14 14 14 14 15 15 15 15 15 16 16 17 17 18 15 15 14 13 15 15 16 15 15 18 14 15 18 16 16 13 13 13 16 16 23 24 18 13 18 23 27 26 26
16 17 16 15 15 15 16 16 16 16 16 17 18 18 19 15 15 14 14 17 17 17 17 16 17 18 16 12 14 14 11 9 9 12 17 19 24 28 8 13 19 22 26 24 24
15 15 16 16 16 17 17 17 16 16 16 17 18 19 16 16 16 12 14 15 17 16 18 19 20 19 16 17 14 11 10 14 7 11 14 17 26 21 16 15 24 25 25 24 21
14 14 15 16 17 17 18 18 17 17 16 19 16 11 15 15 12 15 18 16 16 15 16 18 14 6 11 9 9 10 18 20 16 16 18 21 30 28 25 22 24 24 21 20 20
13 13 13 15 16 18 18 17 16 18 7 9 5 21 11 15 14 15 15 17 17 15 12 12 12 11 7 18 21 23 24 25 26 25 25 30 30 26 27 26 24 25 20 17 20
15 14 13 13 14 17 17 15 15 15 6 16 15 17 14 15 12 14 16 17 17 17 19 15 12 14 16 19 22 24 26 28 25 23 29 29 34 31 28 25 21 19 15 18 19
16 15 14 13 14 16 15 14 20 22 20 6 14 16 15 14 12 13 16 18 18 20 17 17 10 14 18 21 23 25 28 27 29 29 35 36 34 25 24 23 17 16 19 19 18
17 16 16 16 17 14 12 21 20 19 15 8 9 8 9 9 16 14 18 20 20 18 18 19 14 16 20 22 25 25 29 32 34 36 29 31 37 33 27 13 15 15 17 18 15
18 17 17 18 17 16 16 23 20 18 17 7 8 9 11 13 13 15 19 19 17 19 20 18 15 19 21 23 26 27 31 31 33 36 36 29 38 32 20 14 11 12 11 14 16
21 19 12 16 8 23 22 23 21 14 19 11 9 11 11 9 15 11 17 17 18 23 20 14 18 22 24 25 24 23 25 25 24 27 26 26 26 21 14 28 22 15 12 11 19
22 21 20 11 10 23 24 21 15 14 18 11 11 11 7 7 13 14 15 16 22 22 22 18 24 16 17 22 18 16 21 27 25 23 26 30 33 30 34 34 31 26 23 25 25
24 22 14 16 21 26 24 14 15 13 12 11 13 10 7 7 13 16 20 22 19 22 21 20 12 14 17 22 25 28 32 35 30 31 29 39 32 31 33 31 30 30 31 32 33
25 21 10 8 23 24 16 13 15 19 18 18 18 16 17 13 15 17 20 23 13 20 25 22 16 15 16 21 26 25 23 28 34 35 36 29 26 22 27 30 30 30 33 35 36
24 13 11 17 21 21 15 11 17 22 21 21 21 16 19 8 13 16 18 15 17 20 21 24 17 26 22 22 24 24 25 24 29 29 31 28 25 25 31 36 28 29 28 30 32
21 11 13 20 19 18 12 6 20 19 22 21 18 21 21 11 11 14 17 15 15 16 21 22 29 22 17 20 19 15 17 28 25 32 35 29 34 30 43 37 29 30 35 34 35
19 16 17 22 17 13 10 19 18 18 22 21 21 24 20 23 22 20 19 14 14 17 20 24 21 22 28 24 27 26 23 24 28 25 32 38 29 39 37 32 32 32 34 30 32
20 20 21 23 16 9 17 19 19 21 20 20 20 23 23 24 22 21 18 16 15 20 25 23 23 29 27 24 20 20 25 23 26 29 26 30 32 27 27 30 26 27 31 30 32
24 21 18 22 19 22 20 20 18 20 21 20 20 19 21 19 20 17 18 13 18 22 21 26 24 33 32 18 17 21 23 28 25 26 28 31 30 24 28 29 30 32 31 33 33
22 20 21 20 17 22 26 24 20 16 21 20 22 21 22 20 15 17 17 14 16 18 18 22 22 23 26 27 31 30 28 27 25 26 27 23 27 26 28 27 30 30 31 32 31
22 20 19 21 27 27 25 27 26 22 17 19 20 19 21 20 20 18 18 15 16 15 19 20 25 25 26 29 28 26 25 24 23 23 25 25 22 25 25 24 29 30 33 36 36
24 23 25 26 21 26 24 24 21 22 21 23 19 22 20 21 21 24 24 24 22 18 20 19 24 27 29 25 24 31 29 26 22 20 20 22 23 29 26 26 30 34 37 35 36
26 25 22 23 24 19 22 20 21 22 20 19 20 21 20 21 22 22 22 22 19 20 21 23 25 29 28 28 34 31 24 26 25 24 24 26 27 30 27 32 36 38 39 38 37
Wind_Direction
291 287 283 277 270 268 269 269 273 279 278 268 258 264 265 266 249 186 274 306 304 252 255 219 198 207 216 234 256 256 257 266 275 287 328 340 312 338 322 308 325 325 325 330 333
287 283 282 287 290 287 284 286 294 297 296 277 256 252 261 269 230 291 326 290 264 251 248 208 236 259 211 262 278 256 259 301 308 311 311 322 307 313 306 314 319 321 334 330 327
283 281 278 280 283 286 289 296 302 304 291 265 246 244 248 253 223 346 319 228 208 211 216 252 290 254 262 283 292 279 294 303 311 305 312 308 308 332 313 317 326 319 318 326 326
278 277 276 272 269 264 259 266 271 271 267 256 247 260 253 232 331 352 171 185 191 186 205 188 225 285 286 319 307 338 322 295 323 331 318 317 324 320 325 320 331 327 326 325 324
280 271 272 271 262 256 254 253 256 255 251 250 255 270 262 215 337 57 135 175 185 188 156 159 223 309 305 318 333 336 345 337 340 337 335 332 325 319 320 335 347 337 333 330 328
299 288 268 265 258 249 244 239 239 245 245 247 263 271 269 266 1 31 114 177 285 304 329 320 316 279 333 320 301 331 336 357 5 3 353 349 331 325 331 344 342 335 329 334 333
295 297 295 274 257 238 231 232 235 242 242 245 270 300 258 344 345 30 64 339 335 303 327 316 298 278 321 11 351 4 19 36 27 10 345 349 338 331 339 344 336 334 331 336 336
284 281 285 290 276 256 245 233 224 226 231 240 281 303 339 338 321 51 13 6 2 2 323 307 268 291 310 327 347 24 20 343 360 351 352 354 335 354 4 343 325 327 329 332 335
281 271 269 275 280 266 252 239 218 218 205 234 311 27 345 12 26 358 324 340 351 10 2 332 352 56 3 24 10 358 345 337 355 356 342 335 323 333 336 332 329 327 329 334 335
285 261 245 248 262 273 270 325 335 304 60 53 89 307 9 358 359 340 350 333 339 346 11 16 3 6 36 327 327 318 318 325 329 333 335 329 328 334 333 326 324 325 331 337 335
302 280 251 236 247 272 320 28 15 7 42 333 355 336 351 352 10 2 346 330 341 333 330 346 348 340 337 332 325 324 324 324 335 343 334 334 326 330 330 323 318 332 346 340 337
307 290 268 250 255 310 38 27 347 326 331 33 338 327 338 347 1 355 344 329 330 321 337 332 352 346 331 330 332 329 326 331 331 338 331 329 327 329 333 340 351 345 339 335 337
303 290 280 274 273 48 69 354 345 351 355 31 25 23 15 13 332 351 333 325 321 322 326 312 347 343 337 331 330 335 332 329 329 331 338 334 331 334 331 348 353 344 337 335 331
296 282 280 277 30 35 20 349 357 359 346 20 14 9 3 348 345 342 332 326 326 319 316 318 346 335 335 337 332 331 338 339 337 335 333 342 331 338 4 359 341 342 342 335 342
298 280 226 49 86 2 348 343 336 23 351 30 28 17 3 353 348 9 337 329 317 297 315 345 332 326 323 334 347 345 351 349 344 336 335 339 334 11 16 341 347 348 341 358 338
299 294 294 64 71 354 338 351 26 13 352 25 19 2 4 1 346 348 347 331 293 296 297 289 304 347 354 354 359 355 347 342 339 337 336 355 349 341 336 336 332 338 343 348 347
301 297 17 13 351 332 336 25 8 8 36 24 10 23 29 10 345 332 294 297 313 315 316 315 348 11 358 352 352 349 344 340 344 343 340 341 341 347 348 351 347 339 336 333 333
302 331 38 63 341 338 20 25 358 339 345 348 343 339 313 331 330 316 314 294 352 320 310 326 342 358 11 353 346 347 350 345 338 337 334 344 344 352 0 354 346 342 340 335 326
306 31 31 359 343 350 10 15 353 329 331 333 320 333 308 359 340 324 327 327 331 342 332 331 342 337 342 345 352 350 342 350 339 336 333 340 342 342 354 345 348 353 347 338 334
356 25 13 352 351 352 9 19 336 347 327 322 326 315 303 334 347 337 331 341 346 350 348 334 326 337 353 352 346 335 341 338 341 334 332 336 334 334 337 345 348 344 340 342 336
7 5 1 344 353 3 360 347 350 356 335 327 310 297 311 306 315 321 323 346 350 348 344 334 333 333 334 335 337 340 339 336 335 335 329 329 336 336 337 346 350 347 344 350 348
354 346 352 345 350 8 342 339 340 336 339 329 318 301 303 306 314 318 327 337 347 341 335 340 337 329 330 330 340 349 339 341 335 334 331 328 326 341 344 351 357 350 351 356 350
342 341 3 347 335 327 341 335 334 330 333 327 323 321 317 316 317 322 324 347 339 335 338 338 336 329 337 1 354 348 345 337 332 331 327 327 329 340 343 348 341 345 349 350 350
343 344 343 346 356 334 323 326 325 338 330 324 314 317 313 316 320 323 328 338 341 338 341 340 333 327 326 329 329 329 331 332 331 328 327 324 328 335 352 350 344 349 350 349 350
340 341 345 337 321 325 324 313 312 319 341 332 321 318 320 320 319 320 325 335 340 342 339 337 331 330 328 327 329 327 328 331 328 327 324 328 329 346 348 347 343 344 345 346 345
332 336 328 326 330 325 323 321 323 322 325 315 325 321 321 319 319 317 322 324 325 331 335 336 330 332 329 333 333 332 332 328 328 328 331 339 338 342 357 347 341 341 342 347 346
337 332 329 327 326 329 330 327 324 327 326 324 325 323 324 327 327 325 325 323 323 324 325 327 329 332 333 340 335 335 351 348 344 344 343 340 341 345 346 335 334 335 339 341 342